International Skating Union - Official Site

Essent ISU World Cup Calgary
December 4-6, 2009

Draw | Lap Times | Index | World Cup

Referee: Dan  IMMERFALL  (USA)
Starter: Bruce  LANSER  (USA)
StartTime: EndTime: Air Temp: Ice Temp: Humidity:
14:45 16:16 15.9℃ -8.3℃ 24%
Result 5000m Men Division A
Rankings as of Dec 5 2009 6:36PM
Rank: No.: Name: Nation: Time: Behind: Points:
1 107 Sven  KRAMER NED NED 6:11.11200m - 18.26 - (18.2)
600m - 46.87 - (28.6)
1000m - 1:16.35 - (29.4)
1400m - 1:45.67 - (29.3)
1800m - 2:14.83 - (29.1)
2200m - 2:44.31 - (29.4)
2600m - 3:13.66 - (29.3)
3000m - 3:43.15 - (29.4)
3400m - 4:12.45 - (29.3)
3800m - 4:42.20 - (29.7)
4200m - 5:11.28 - (29.0)
4600m - 5:40.85 - (29.5)
5000m - 6:11.11 - (30.2)
100
2 149 Ivan  SKOBREV RUS RUS 6:13.19200m - 18.50 - (18.5)
600m - 47.72 - (29.2)
1000m - 1:17.30 - (29.5)
1400m - 1:46.97 - (29.6)
1800m - 2:16.42 - (29.4)
2200m - 2:46.11 - (29.6)
2600m - 3:15.89 - (29.7)
3000m - 3:45.97 - (30.0)
3400m - 4:15.74 - (29.7)
3800m - 4:45.33 - (29.5)
4200m - 5:14.62 - (29.2)
4600m - 5:43.71 - (29.0)
5000m - 6:13.19 - (29.4)
2.08 80
3 102 Bob  de JONG NED NED 6:13.80200m - 19.50 - (19.5)
600m - 49.23 - (29.7)
1000m - 1:19.37 - (30.1)
1400m - 1:49.25 - (29.8)
1800m - 2:18.66 - (29.4)
2200m - 2:48.11 - (29.4)
2600m - 3:17.78 - (29.6)
3000m - 3:47.18 - (29.4)
3400m - 4:16.55 - (29.3)
3800m - 4:46.01 - (29.4)
4200m - 5:15.53 - (29.5)
4600m - 5:44.90 - (29.3)
5000m - 6:13.80 - (28.9)
2.69 70
4 116 Carl  VERHEIJEN NED NED 6:15.26200m - 19.33 - (19.3)
600m - 48.50 - (29.1)
1000m - 1:17.99 - (29.4)
1400m - 1:47.88 - (29.8)
1800m - 2:18.27 - (30.3)
2200m - 2:48.19 - (29.9)
2600m - 3:17.52 - (29.3)
3000m - 3:46.79 - (29.2)
3400m - 4:16.53 - (29.7)
3800m - 4:46.34 - (29.8)
4200m - 5:16.04 - (29.7)
4600m - 5:45.59 - (29.5)
5000m - 6:15.26 - (29.6)
4.15 60
5 94 Seung-Hoon  LEE KOR KOR 6:16.75200m - 19.20 - (19.2)
600m - 48.66 - (29.4)
1000m - 1:18.21 - (29.5)
1400m - 1:48.22 - (30.0)
1800m - 2:18.06 - (29.8)
2200m - 2:47.77 - (29.7)
2600m - 3:18.08 - (30.3)
3000m - 3:48.03 - (29.9)
3400m - 4:18.23 - (30.2)
3800m - 4:48.31 - (30.0)
4200m - 5:18.52 - (30.2)
4600m - 5:48.15 - (29.6)
5000m - 6:16.75 - (28.6)
5.64 50
6 119 Håvard  BØKKO NOR NOR 6:17.50200m - 18.17 - (18.1)
600m - 46.96 - (28.7)
1000m - 1:16.35 - (29.3)
1400m - 1:45.84 - (29.4)
1800m - 2:15.46 - (29.6)
2200m - 2:45.13 - (29.6)
2600m - 3:14.80 - (29.6)
3000m - 3:44.80 - (30.0)
3400m - 4:14.80 - (30.0)
3800m - 4:45.23 - (30.4)
4200m - 5:15.75 - (30.5)
4600m - 5:46.46 - (30.7)
5000m - 6:17.50 - (31.0)
6.39 45
7 48 Alexis  CONTIN FRA FRA 6:20.15200m - 18.95 - (18.9)
600m - 48.56 - (29.6)
1000m - 1:18.37 - (29.8)
1400m - 1:48.41 - (30.0)
1800m - 2:18.31 - (29.9)
2200m - 2:48.26 - (29.9)
2600m - 3:18.30 - (30.0)
3000m - 3:48.53 - (30.2)
3400m - 4:18.71 - (30.1)
3800m - 4:49.05 - (30.3)
4200m - 5:19.23 - (30.1)
4600m - 5:49.51 - (30.2)
5000m - 6:20.15 - (30.6)
9.04 40
8 112 Wouter  OLDE HEUVEL NED NED 6:20.47200m - 18.40 - (18.4)
600m - 47.38 - (28.9)
1000m - 1:16.97 - (29.5)
1400m - 1:47.06 - (30.0)
1800m - 2:16.90 - (29.8)
2200m - 2:46.75 - (29.8)
2600m - 3:16.87 - (30.1)
3000m - 3:47.19 - (30.3)
3400m - 4:17.74 - (30.5)
3800m - 4:48.33 - (30.5)
4200m - 5:19.06 - (30.7)
4600m - 5:49.70 - (30.6)
5000m - 6:20.47 - (30.7)
9.36 36
9 121 Henrik  CHRISTIANSEN NOR NOR 6:20.91200m - 19.48 - (19.4)
600m - 49.41 - (29.9)
1000m - 1:19.55 - (30.1)
1400m - 1:49.53 - (29.9)
1800m - 2:19.51 - (29.9)
2200m - 2:49.24 - (29.7)
2600m - 3:19.09 - (29.8)
3000m - 3:49.08 - (29.9)
3400m - 4:19.23 - (30.1)
3800m - 4:49.66 - (30.4)
4200m - 5:20.05 - (30.3)
4600m - 5:50.44 - (30.3)
5000m - 6:20.91 - (30.4)
9.80 32
10 129 Shane  DOBBIN NZL NZL 6:20.97200m - 19.33 - (19.3)
600m - 48.57 - (29.2)
1000m - 1:17.78 - (29.2)
1400m - 1:47.50 - (29.7)
1800m - 2:17.78 - (30.2)
2200m - 2:48.10 - (30.3)
2600m - 3:18.16 - (30.0)
3000m - 3:48.10 - (29.9)
3400m - 4:18.04 - (29.9)
3800m - 4:48.51 - (30.4)
4200m - 5:19.04 - (30.5)
4600m - 5:49.87 - (30.8)
5000m - 6:20.97 - (31.1)
9.86 28
11 162 Shani  DAVIS USA USA 6:21.53200m - 19.27 - (19.2)
600m - 48.45 - (29.1)
1000m - 1:18.81 - (30.3)
1400m - 1:49.10 - (30.2)
1800m - 2:20.02 - (30.9)
2200m - 2:50.24 - (30.2)
2600m - 3:20.66 - (30.4)
3000m - 3:50.78 - (30.1)
3400m - 4:20.77 - (29.9)
3800m - 4:50.32 - (29.5)
4200m - 5:20.45 - (30.1)
4600m - 5:50.86 - (30.4)
5000m - 6:21.53 - (30.6)
10.42 24
12 165 Chad  HEDRICK USA USA 6:22.62200m - 19.50 - (19.5)
600m - 49.03 - (29.5)
1000m - 1:19.24 - (30.2)
1400m - 1:49.68 - (30.4)
1800m - 2:20.08 - (30.4)
2200m - 2:50.72 - (30.6)
2600m - 3:21.07 - (30.3)
3000m - 3:51.55 - (30.4)
3400m - 4:21.91 - (30.3)
3800m - 4:52.91 - (31.0)
4200m - 5:22.50 - (29.5)
4600m - 5:51.77 - (29.2)
5000m - 6:22.62 - (30.8)
11.51 21
13 69 Enrico  FABRIS ITA ITA 6:22.92200m - 19.08 - (19.0)
600m - 48.65 - (29.5)
1000m - 1:18.53 - (29.8)
1400m - 1:48.61 - (30.0)
1800m - 2:18.82 - (30.2)
2200m - 2:49.15 - (30.3)
2600m - 3:19.58 - (30.4)
3000m - 3:50.18 - (30.6)
3400m - 4:20.49 - (30.3)
3800m - 4:51.29 - (30.8)
4200m - 5:21.93 - (30.6)
4600m - 5:52.48 - (30.5)
5000m - 6:22.92 - (30.4)
11.81 18
14 157 Johan  RÖJLER SWE SWE 6:23.63200m - 18.75 - (18.7)
600m - 48.72 - (29.9)
1000m - 1:18.85 - (30.1)
1400m - 1:49.23 - (30.3)
1800m - 2:19.47 - (30.2)
2200m - 2:50.09 - (30.6)
2600m - 3:20.36 - (30.2)
3000m - 3:50.74 - (30.3)
3400m - 4:20.85 - (30.1)
3800m - 4:51.52 - (30.6)
4200m - 5:21.95 - (30.4)
4600m - 5:52.72 - (30.7)
5000m - 6:23.63 - (30.9)
12.52 16
15 74 Hiroki  HIRAKO JPN JPN 6:23.73200m - 18.69 - (18.6)
600m - 48.15 - (29.4)
1000m - 1:18.18 - (30.0)
1400m - 1:48.35 - (30.1)
1800m - 2:18.58 - (30.2)
2200m - 2:49.32 - (30.7)
2600m - 3:19.75 - (30.4)
3000m - 3:50.12 - (30.3)
3400m - 4:20.52 - (30.4)
3800m - 4:51.10 - (30.5)
4200m - 5:21.87 - (30.7)
4600m - 5:52.72 - (30.8)
5000m - 6:23.73 - (31.0)
12.62 14
16 63 Marco  WEBER GER GER 6:24.48200m - 19.40 - (19.4)
600m - 49.33 - (29.9)
1000m - 1:19.75 - (30.4)
1400m - 1:49.95 - (30.2)
1800m - 2:20.20 - (30.2)
2200m - 2:50.38 - (30.1)
2600m - 3:20.97 - (30.5)
3000m - 3:51.56 - (30.5)
3400m - 4:22.30 - (30.7)
3800m - 4:52.99 - (30.6)
4200m - 5:23.91 - (30.9)
4600m - 5:54.36 - (30.4)
5000m - 6:24.48 - (30.1)
13.37 12
17 18 Lucas  MAKOWSKY CAN CAN 6:24.72200m - 19.11 - (19.1)
600m - 48.77 - (29.6)
1000m - 1:18.66 - (29.8)
1400m - 1:48.92 - (30.2)
1800m - 2:19.45 - (30.5)
2200m - 2:49.74 - (30.2)
2600m - 3:20.23 - (30.4)
3000m - 3:50.47 - (30.2)
3400m - 4:20.90 - (30.4)
3800m - 4:51.40 - (30.5)
4200m - 5:22.10 - (30.7)
4600m - 5:53.20 - (31.1)
5000m - 6:24.72 - (31.5)
13.61 10
18 123 Øystein  GRØDUM NOR NOR 6:26.17200m - 19.65 - (19.6)
600m - 50.04 - (30.3)
1000m - 1:20.29 - (30.2)
1400m - 1:50.65 - (30.3)
1800m - 2:21.20 - (30.5)
2200m - 2:51.74 - (30.5)
2600m - 3:22.36 - (30.6)
3000m - 3:52.91 - (30.5)
3400m - 4:23.40 - (30.4)
3800m - 4:54.11 - (30.7)
4200m - 5:24.75 - (30.6)
4600m - 5:55.40 - (30.6)
5000m - 6:26.17 - (30.7)
15.06 8
19 13 Mathieu  GIROUX CAN CAN 6:31.80200m - 18.90 - (18.9)
600m - 49.03 - (30.1)
1000m - 1:19.25 - (30.2)
1400m - 1:49.91 - (30.6)
1800m - 2:20.06 - (30.1)
2200m - 2:50.39 - (30.3)
2600m - 3:21.00 - (30.6)
3000m - 3:51.88 - (30.8)
3400m - 4:23.04 - (31.1)
3800m - 4:54.89 - (31.8)
4200m - 5:27.04 - (32.1)
4600m - 5:59.40 - (32.3)
5000m - 6:31.80 - (32.4)
20.69 6
20 120 Reidar  BORGERSEN NOR NOR 6:37.53200m - 19.90 - (19.9)
600m - 50.32 - (30.4)
1000m - 1:20.83 - (30.5)
1400m - 1:51.54 - (30.7)
1800m - 2:22.21 - (30.6)
2200m - 2:53.07 - (30.8)
2600m - 3:24.21 - (31.1)
3000m - 3:55.53 - (31.3)
3400m - 4:27.08 - (31.5)
3800m - 4:58.83 - (31.7)
4200m - 5:31.20 - (32.3)
4600m - 6:04.00 - (32.8)
5000m - 6:37.53 - (33.5)
26.42 5